Location: Pedholt
(56.0260°N, 10.2097°E)
Time: 06:18:00
(UTC+00:00)

Cosmos 1242 Rocket - Pass Details

Date: 14 July 2020
Orbit: 448 x 487 km, 81.2° (Epoch: 14 August)

Event Time Altitude Azimuth Distance (km) Brightness Sun altitude
Rises 01:39:28 0° 348° (NNW) 2,470 7.0 -7.3°
Reaches altitude 10° 01:41:35 10° 354° (N) 1,593 6.1 -7.1°
Maximum altitude 01:44:58 50° 71° (ENE) 589 3.4 -6.9°
Drops below altitude 10° 01:48:21 10° 148° (SSE) 1,588 4.9 -6.6°
Sets 01:50:28 0° 154° (SSE) 2,460 5.8 -6.5°
